Location: Warszawa
(52.2322°N, 21.0083°E)
Time: 02:46:20
(UTC+02:00)

ISS - Pass Details

Date: 27 March 2019
Orbit: 408 x 410 km, 51.6° (Epoch: 23 April)

Event Time Altitude Azimuth Distance (km) Brightness Sun altitude
Rises 18:33:22 0° 240° (WSW) 2,332 0.9 -5.8°
Reaches altitude 10° 18:35:29 10° 234° (SW) 1,472 -0.3 -6.1°
Maximum altitude 18:38:40 47° 159° (SSE) 550 -3.4 -6.6°
Drops below altitude 10° 18:41:52 10° 85° (E) 1,476 -1.6 -7.0°
Enters shadow 18:42:12 - 83° (E) 1,608 -1.4 -7.1°
